Regional Weather Roundup
Issued by NWS

Home | Current Version | Previous Version | Text Only | Print | Product List | Glossary Off
Versions: 1 2 3 4 5 6 7 8 9 10 11 12 13 14 15 16 17 18 19 20 21 22 23 24 25 26 27

000
ASUS43 KDMX 210607
RWRIA

WEATHER ROUNDUP FOR IOWA
NATIONAL WEATHER SERVICE DES MOINES IA
100 AM CDT MON APR 21 2014

NOTE: "FAIR" INDICATES FEW OR NO CLOUDS BELOW 12,000 FEET WITH NO
SIGNIFICANT WEATHER AND/OR OBSTRUCTIONS TO VISIBILITY.

* - THESE STATIONS ARE NOT NWS STATIONS...THUS NOT UNDER NWS
QUALITY CONTROL.  THEY ALSO DO NOT REPORT WEATHER SUCH
AS PRECIPITATION OR FOG.

IAZ001>003-012>014-020>022-031>034-043>046-210700-
   NORTHWEST IOWA

CITY           SKY/WX    TMP DP  RH WIND       PRES   REMARKS
CARROLL *      MOCLDY    61  55  82 SW7       29.95F
CHEROKEE *       N/A     61  55  82 S8        29.94S THUNDER
DENISON *      CLOUDY    61  55  82 S6        29.94S
LE MARS *      MOCLDY    61  55  82 S8        29.92S
ORANGE CITY *  PTCLDY    61  55  82 S8        29.91F
SHELDON *      PTCLDY    59  54  82 S12       29.90S
SIOUX CITY     MOCLDY    64  55  72 S12       29.92F
6HR MIN TEMP:  64; 6HR MAX TEMP:  71; 6HR PCP:  0.01;

SPENCER        CLOUDY    61  55  81 S10       29.92F
6HR MIN TEMP:  61; 6HR MAX TEMP:  73; 6HR PCP:  0.16;

STORM LAKE *   CLOUDY    61  55  82 SW14      29.95F
$$

IAZ055>058-069>071-079>083-090>094-210700-
   SOUTHWEST IOWA

CITY           SKY/WX    TMP DP  RH WIND       PRES   REMARKS
ATLANTIC *     CLOUDY    61  57  88 CALM      29.96S
AUDUBON *      LGT RAIN  61  54  77 S6        29.97F
CLARINDA *     PTCLDY    59  57  94 CALM      29.99S
COUNCIL BLFS *   N/A     63  59  88 SW8       29.95S
CRESTON *      CLEAR     59  55  88 S9        29.98S
HARLAN  *      LGT RAIN  61  59  94 SW10      30.00S
LAMONI           N/A     63  53  70 SW7       29.98S
6HR MIN TEMP:  63; 6HR MAX TEMP:  74;

RED OAK *      CLOUDY    59  57  94 S7        29.97S
SHENANDOAH *   CLEAR     59  57  94 S8        29.98S
$$

IAZ047>049-059>061-072>074-084-210700-
   CENTRAL IOWA

CITY           SKY/WX    TMP DP  RH WIND       PRES   REMARKS
AMES           MOCLDY    58  53  84 CALM      29.96S
6HR MIN TEMP:  58; 6HR MAX TEMP:  77;

ANKENY *       CLEAR     64  55  72 CALM      29.97R
CHARITON *     CLOUDY    64  52  63 SW6       29.98S
DES MOINES     CLOUDY    66  54  65 SW5       29.97S
6HR MIN TEMP:  65; 6HR MAX TEMP:  78;

GRINNELL*        N/A     63  48  59 S7        29.98S
KNOXVILLE *    CLOUDY    64  50  59 S5        29.97S
MARSHALLTOWN   MOCLDY    62  51  67 SW3       29.96S
6HR MIN TEMP:  62; 6HR MAX TEMP:  77;

NEWTON *       CLEAR     64  52  63 SW5       29.98S
PELLA *          N/A     64  50  59 S5        29.98F
PERRY *          N/A     61  52  72 SW5       29.96S
$$

IAZ004>006-015-016-023>025-035-036-210700-
   NORTH CENTRAL IOWA

CITY           SKY/WX    TMP DP  RH WIND       PRES   REMARKS
ALGONA *       MOCLDY    61  57  88 SW8       29.96R
CLARION *      LGT RAIN  61  59  94 CALM      29.96S
ESTHERVILLE    CLOUDY    59  57  93 S12       29.92S
6HR MIN TEMP:  57; 6HR MAX TEMP:  74; 6HR PCP:  0.30;

FORT DODGE *   MOCLDY    64  55  72 S5        29.97S
MASON CITY     RAIN      59  57  93 NE9       29.97F FOG
6HR MIN TEMP:  59; 6HR MAX TEMP:  64; 6HR PCP:  1.48;

FOREST CITY *  LGT RAIN  59  59 100 SE12      29.95F
IOWA FALLS *   CLOUDY    61  55  82 CALM      29.97F
$$

IAZ007>011-017>019-026>030-037>042-050>054-066-210700-
   NORTHEAST IOWA

CITY           SKY/WX    TMP DP  RH WIND       PRES   REMARKS
CEDAR RAPIDS     N/A     63  49  60 S3        29.97S
6HR MIN TEMP:  60; 6HR MAX TEMP:  76;

CHARLES CITY * DRIZZLE   57  55  94 CALM      30.00R
CLINTON *        N/A     63  46  55 S9        30.03F
DECORAH *      MOCLDY    59  57  94 S10G17    29.97S
DUBUQUE        CLOUDY    63  48  58 W6        30.00R
6HR MIN TEMP:  60; 6HR MAX TEMP:  73;

MONTICELLO *   CLOUDY    63  50  63 N5        29.99R
OELWEIN *      LGT RAIN N/A N/A N/A NE6       30.00R
WATERLOO       CLOUDY    59  56  89 MISG      29.97F
6HR MIN TEMP:  58; 6HR MAX TEMP:  76; 6HR PCP:  0.19;

$$

IAZ064-065-067-068-078-210700-
   EAST CENTRAL IOWA

CITY           SKY/WX    TMP DP  RH WIND       PRES   REMARKS
DAVENPORT        N/A     66  47  50 S12       30.00S
6HR MIN TEMP:  65; 6HR MAX TEMP:  77;

IOWA CITY        N/A     62  50  64 CALM      29.99S
6HR MIN TEMP:  62; 6HR MAX TEMP:  77;

MT. PLEASANT *   N/A     64  48  55 SW6       30.00S
MUSCATINE *    MOCLDY    66  50  55 CALM      29.99S
QUAD CITIES      N/A     68  42  38 S13       29.99S
6HR MIN TEMP:  67; 6HR MAX TEMP:  77;

$$

IAZ062-063-075>077-085>089-095>099-210700-
   SOUTHEAST IOWA

CITY           SKY/WX    TMP DP  RH WIND       PRES   REMARKS
BURLINGTON       N/A     64  46  52 S8        30.00S
6HR MIN TEMP:  62; 6HR MAX TEMP:  76;

FAIRFIELD *    CLOUDY    64  48  55 S6        29.99F
FORT MADISON * CLEAR     64  48  55 S3        30.01S
KEOKUK *       CLEAR     63  50  63 SE3       30.00R
OSKALOOSA *      N/A     64  51  63 SW7       29.98F
CENTERVILLE *  CLEAR     66  54  63 SW7       30.01S
OTTUMWA          N/A     64  50  60 S7        29.98S
6HR MIN TEMP:  60; 6HR MAX TEMP:  76;

WASHINGTON *   CLEAR     63  50  63 S8        29.99S
$$

ABBREVIATIONS USED IN REMARKS
   TC - TEMPERATURES IN CELSIUS
  WCI - WIND CHILL INDEX
   HX - HEAT INDEX
  VSB - VISIBILITY
$$




USA.gov is the U.S. government's official web portal to all federal, state and local government web resources and services.